TimeEST,TemperatureF,Dew PointF,Humidity,Sea Level PressureIn,VisibilityMPH,Wind Direction,Wind SpeedMPH,Gust SpeedMPH,PrecipitationIn,Events,Conditions,WindDirDegrees,DateUTC
12:54 AM,14.0,9.0,80,30.45,10.0,Calm,Calm,-,N/A,,Clear,0,2013-11-25 05:54:00
1:54 AM,14.0,8.1,77,30.46,10.0,WSW,8.1,-,N/A,,Clear,240,2013-11-25 06:54:00
2:54 AM,12.9,8.1,81,30.48,10.0,SSW,4.6,-,N/A,,Clear,210,2013-11-25 07:54:00
3:54 AM,12.9,7.0,77,30.49,10.0,SW,5.8,-,N/A,,Clear,230,2013-11-25 08:54:00
4:54 AM,12.0,7.0,80,30.50,10.0,SSW,5.8,-,N/A,,Clear,210,2013-11-25 09:54:00
5:54 AM,12.0,8.1,84,30.49,10.0,SSW,5.8,-,N/A,,Clear,200,2013-11-25 10:54:00
6:54 AM,10.9,8.1,88,30.49,10.0,SSW,4.6,-,N/A,,Clear,200,2013-11-25 11:54:00
7:54 AM,12.0,8.1,84,30.48,10.0,SSW,5.8,-,N/A,,Clear,200,2013-11-25 12:54:00
8:54 AM,15.1,8.1,74,30.49,10.0,SSW,6.9,-,N/A,,Clear,210,2013-11-25 13:54:00
9:54 AM,18.0,9.0,68,30.48,10.0,SSW,10.4,-,N/A,,Clear,200,2013-11-25 14:54:00
10:54 AM,19.9,9.0,62,30.46,10.0,SSW,11.5,-,N/A,,Clear,200,2013-11-25 15:54:00
11:54 AM,23.0,10.0,58,30.41,10.0,SW,9.2,-,N/A,,Clear,230,2013-11-25 16:54:00
12:54 PM,26.1,9.0,49,30.37,10.0,SW,8.1,-,N/A,,Clear,220,2013-11-25 17:54:00
1:54 PM,28.9,10.0,45,30.32,10.0,South,5.8,-,N/A,,Partly Cloudy,180,2013-11-25 18:54:00
2:54 PM,30.0,8.1,40,30.29,10.0,South,8.1,-,N/A,,Clear,190,2013-11-25 19:54:00
3:54 PM,30.0,9.0,41,30.28,10.0,South,10.4,-,N/A,,Clear,190,2013-11-25 20:54:00
4:54 PM,30.0,10.0,43,30.27,10.0,South,6.9,-,N/A,,Mostly Cloudy,180,2013-11-25 21:54:00
5:54 PM,28.9,10.0,45,30.28,10.0,SSW,6.9,-,N/A,,Partly Cloudy,210,2013-11-25 22:54:00
6:54 PM,28.9,9.0,43,30.28,10.0,SSW,6.9,-,N/A,,Mostly Cloudy,200,2013-11-25 23:54:00
7:54 PM,28.0,10.0,47,30.27,10.0,SW,4.6,-,N/A,,Mostly Cloudy,220,2013-11-26 00:54:00
8:54 PM,28.9,10.0,45,30.25,10.0,WSW,3.5,-,N/A,,Overcast,240,2013-11-26 01:54:00
9:54 PM,30.0,10.9,45,30.23,10.0,SSW,4.6,-,N/A,,Overcast,200,2013-11-26 02:54:00
10:54 PM,30.0,12.0,47,30.25,10.0,SSW,5.8,-,N/A,,Overcast,200,2013-11-26 03:54:00
11:54 PM,32.0,14.0,48,30.25,10.0,SSW,6.9,-,N/A,,Overcast,210,2013-11-26 04:54:00